User: anonymous   Login
Location: Oshawa
(43.9000°N, 78.8670°W)
Time: 16:27:07
(UTC-04:00)
Language:

Hubble Space Telescope - Orbit

View from above orbital plane
View from above orbital plane
View from above satellite
View from above satellite

Ground track
Ground track

The orbit data is extracted from the following two-line orbital elements,

1 20580U 90037B   16178.81108796 +.00000501 +00000-0 +20136-4 0  9999
2 20580 028.4688 195.1642 0002573 315.6158 027.5973 15.08404641236475
Epoch (UTC): 26 June 2016 19:27:58
Eccentricity: 0.0002573
inclination: 28.4688°
perigee height: 539 km
apogee height: 543 km
right ascension of ascending node: 195.1642°
argument of perigee: 315.6158°
revolutions per day: 15.08404641
mean anomaly at epoch: 27.5973°
orbit number at epoch: 23647

The dashed part of the orbit path shows where the satellite is in the earth's shadow,  

DLR